Year,Month,Day,Hour,Minute,Value (Times are PST for temperature in C)
2016,08,04,00,00,14.00
2016,08,04,00,01,14.00
2016,08,04,00,02,14.00
2016,08,04,00,03,14.00
2016,08,04,00,04,14.00
2016,08,04,00,05,14.00
2016,08,04,00,06,14.00
2016,08,04,00,07,14.00
2016,08,04,00,08,14.10
2016,08,04,00,09,14.10
2016,08,04,00,10,14.10
2016,08,04,00,11,14.20
2016,08,04,00,12,14.20
2016,08,04,00,13,14.20
2016,08,04,00,14,14.20
2016,08,04,00,21,14.40
2016,08,04,00,22,14.40
2016,08,04,00,23,14.40
2016,08,04,00,24,14.50
2016,08,04,00,26,14.50
2016,08,04,00,27,14.50
2016,08,04,00,28,14.50
2016,08,04,00,29,14.50
2016,08,04,01,21,13.80
2016,08,04,01,22,13.80
2016,08,04,01,23,13.80
2016,08,04,01,24,13.80
2016,08,04,01,26,13.80
2016,08,04,01,27,13.80
2016,08,04,01,28,13.80
2016,08,04,01,29,13.80
2016,08,04,03,21,13.00
2016,08,04,03,22,13.00
2016,08,04,03,23,13.00
2016,08,04,03,24,13.00
2016,08,04,03,26,12.90
2016,08,04,03,27,12.90
2016,08,04,03,28,12.90
2016,08,04,03,29,12.80
2016,08,04,03,31,12.80
2016,08,04,03,32,12.80
2016,08,04,03,33,12.80
2016,08,04,03,34,12.80
2016,08,04,03,36,12.80
2016,08,04,03,37,12.80
2016,08,04,03,38,12.70
2016,08,04,03,39,12.70
2016,08,04,03,41,12.70
2016,08,04,03,42,12.70
2016,08,04,03,43,12.70
2016,08,04,03,44,12.70
2016,08,04,03,46,12.60
2016,08,04,03,47,12.60
2016,08,04,03,48,12.60
2016,08,04,03,49,12.60
2016,08,04,03,51,12.60
2016,08,04,03,52,12.60
2016,08,04,03,53,12.60
2016,08,04,03,54,12.60
2016,08,04,03,56,12.50
2016,08,04,03,57,12.50
2016,08,04,03,58,12.50
2016,08,04,03,59,12.50
2016,08,04,04,01,12.40
2016,08,04,04,02,12.40
2016,08,04,04,03,12.40
2016,08,04,04,04,12.30
2016,08,04,04,06,12.30
2016,08,04,04,07,12.30
2016,08,04,04,08,12.30
2016,08,04,04,09,12.30
2016,08,04,04,11,12.30
2016,08,04,04,12,12.30
2016,08,04,04,13,12.30
2016,08,04,04,14,12.30
2016,08,04,04,15,12.30
2016,08,04,04,16,12.30
2016,08,04,04,17,12.30
2016,08,04,04,18,12.30
2016,08,04,04,19,12.30
2016,08,04,04,20,12.30
2016,08,04,04,21,12.20
2016,08,04,04,22,12.20
2016,08,04,04,23,12.20
2016,08,04,04,24,12.20
2016,08,04,04,25,12.20
2016,08,04,04,26,12.20
2016,08,04,04,27,12.20
2016,08,04,04,28,12.20
2016,08,04,04,29,12.20
2016,08,04,04,30,12.20
2016,08,04,04,31,12.20
2016,08,04,04,32,12.20
2016,08,04,04,33,12.20
2016,08,04,04,34,12.20
2016,08,04,04,35,12.20
2016,08,04,04,36,12.20
2016,08,04,04,37,12.20
2016,08,04,04,38,12.20
2016,08,04,04,39,12.20
2016,08,04,04,40,12.20
2016,08,04,04,41,12.20
2016,08,04,04,42,12.10
2016,08,04,04,43,12.10
2016,08,04,04,44,12.10
2016,08,04,04,45,12.10
2016,08,04,04,46,12.10
2016,08,04,04,47,12.10
2016,08,04,04,48,12.10
2016,08,04,04,49,12.10
2016,08,04,04,50,12.10
2016,08,04,04,51,12.10
2016,08,04,04,52,12.10
2016,08,04,04,53,12.10
2016,08,04,04,54,12.10
2016,08,04,04,55,12.10
2016,08,04,04,56,12.10
2016,08,04,04,57,12.10
2016,08,04,04,58,12.10
2016,08,04,04,59,12.10
2016,08,04,05,00,12.10
2016,08,04,05,01,12.10
2016,08,04,05,02,12.10
2016,08,04,05,03,12.10
2016,08,04,05,04,12.10
2016,08,04,05,05,12.10
2016,08,04,05,06,12.10
2016,08,04,05,07,12.10
2016,08,04,05,08,12.10
2016,08,04,05,09,12.10
2016,08,04,05,10,12.10
2016,08,04,05,21,12.10
2016,08,04,05,22,12.00
2016,08,04,05,23,12.00
2016,08,04,05,24,12.00
2016,08,04,05,26,12.00
2016,08,04,05,27,12.00
2016,08,04,05,28,12.00
2016,08,04,05,29,12.00
2016,08,04,05,31,12.00
2016,08,04,05,32,12.00
2016,08,04,05,33,12.00
2016,08,04,05,34,12.00
2016,08,04,05,36,12.00
2016,08,04,05,37,12.00
2016,08,04,05,38,12.00
2016,08,04,05,39,11.90
2016,08,04,07,21,13.30
2016,08,04,07,22,13.30
2016,08,04,07,23,13.30
2016,08,04,07,24,13.30
2016,08,04,07,26,13.40
2016,08,04,07,27,13.40
2016,08,04,07,28,13.40
2016,08,04,07,29,13.40
2016,08,04,07,31,13.50
2016,08,04,07,32,13.50
2016,08,04,07,33,13.60
2016,08,04,07,34,13.60
2016,08,04,07,36,13.70
2016,08,04,07,37,13.70
2016,08,04,07,38,13.70
2016,08,04,07,39,13.80
2016,08,04,07,41,13.90
2016,08,04,07,42,13.90
2016,08,04,07,43,13.90
2016,08,04,07,44,14.00
2016,08,04,07,46,14.00
2016,08,04,07,47,14.00
2016,08,04,07,48,14.10
2016,08,04,07,49,14.10
2016,08,04,07,51,14.10
2016,08,04,07,52,14.20
2016,08,04,07,53,14.20
2016,08,04,07,54,14.20
2016,08,04,07,56,14.20
2016,08,04,07,57,14.20
2016,08,04,07,58,14.20
2016,08,04,07,59,14.20
2016,08,04,08,01,14.20
2016,08,04,08,02,14.20
2016,08,04,08,03,14.20
2016,08,04,08,04,14.20
2016,08,04,08,06,14.30
2016,08,04,08,07,14.30
2016,08,04,08,08,14.30
2016,08,04,08,09,14.40
2016,08,04,08,11,14.40
2016,08,04,08,12,14.40
2016,08,04,08,13,14.50
2016,08,04,08,14,14.50
2016,08,04,08,15,14.50
2016,08,04,08,16,14.50
2016,08,04,08,17,14.60
2016,08,04,08,18,14.60
2016,08,04,08,19,14.60
2016,08,04,08,20,14.60
2016,08,04,08,21,14.70
2016,08,04,08,22,14.70
2016,08,04,08,23,14.70
2016,08,04,08,24,14.70
2016,08,04,08,25,14.80
2016,08,04,08,26,14.80
2016,08,04,08,27,14.80
2016,08,04,08,28,14.90
2016,08,04,08,29,14.90
2016,08,04,08,30,15.00
2016,08,04,08,31,15.00
2016,08,04,08,32,15.10
2016,08,04,08,33,15.10
2016,08,04,08,34,15.20
2016,08,04,08,35,15.30
2016,08,04,08,36,15.30
2016,08,04,08,37,15.30
2016,08,04,08,38,15.30
2016,08,04,08,39,15.40
2016,08,04,08,40,15.40
2016,08,04,08,41,15.40
2016,08,04,08,42,15.40
2016,08,04,08,43,15.50
2016,08,04,08,44,15.50
2016,08,04,08,45,15.50
2016,08,04,08,46,15.50
2016,08,04,08,47,15.50
2016,08,04,08,48,15.50
2016,08,04,08,49,15.60
2016,08,04,08,50,15.60
2016,08,04,08,51,15.60
2016,08,04,08,52,15.60
2016,08,04,08,53,15.60
2016,08,04,08,54,15.70
2016,08,04,08,55,15.70
2016,08,04,08,56,15.70
2016,08,04,08,57,15.80
2016,08,04,08,58,15.80
2016,08,04,08,59,15.80
2016,08,04,09,00,15.80
2016,08,04,09,01,15.80
2016,08,04,09,02,15.80
2016,08,04,09,03,15.80
2016,08,04,09,04,15.90
2016,08,04,09,05,15.90
2016,08,04,09,06,16.10
2016,08,04,09,07,16.10
2016,08,04,09,08,16.10
2016,08,04,09,09,16.10
2016,08,04,09,10,16.20
2016,08,04,09,11,16.20
2016,08,04,09,12,16.30
2016,08,04,09,13,16.30
2016,08,04,09,14,16.40
2016,08,04,09,15,16.40
2016,08,04,09,16,16.40
2016,08,04,09,17,16.40
2016,08,04,09,18,16.60
2016,08,04,09,19,16.60
2016,08,04,09,20,16.70
2016,08,04,09,21,16.70
2016,08,04,09,22,16.70
2016,08,04,09,23,16.70
2016,08,04,09,24,16.80
2016,08,04,09,25,16.80
2016,08,04,09,26,16.90
2016,08,04,09,27,16.90
2016,08,04,09,28,16.90
2016,08,04,09,29,17.00
2016,08,04,09,30,17.00
2016,08,04,09,31,17.00
2016,08,04,09,32,17.00
2016,08,04,09,33,17.00
2016,08,04,09,34,17.00
2016,08,04,09,35,17.00
2016,08,04,09,36,17.00
2016,08,04,09,37,17.00
2016,08,04,09,38,17.00
2016,08,04,09,39,17.00
2016,08,04,09,40,17.00
2016,08,04,09,41,17.00
2016,08,04,09,42,17.00
2016,08,04,09,43,17.00
2016,08,04,09,44,17.10
2016,08,04,09,45,17.20
2016,08,04,09,46,17.20
2016,08,04,09,47,17.20
2016,08,04,09,48,17.30
2016,08,04,09,49,17.30
2016,08,04,09,50,17.30
2016,08,04,09,51,17.30
2016,08,04,09,52,17.30
2016,08,04,09,53,17.30
2016,08,04,09,54,17.40
2016,08,04,09,55,17.40
2016,08,04,09,56,17.50
2016,08,04,09,58,17.50
2016,08,04,09,59,17.50
2016,08,04,10,00,17.50
2016,08,04,10,02,17.50
2016,08,04,10,03,17.50
2016,08,04,10,04,17.50
2016,08,04,10,06,17.60
2016,08,04,10,07,17.60
2016,08,04,10,08,17.70
2016,08,04,10,09,17.70
2016,08,04,10,11,17.70
2016,08,04,10,12,17.70
2016,08,04,10,13,17.80
2016,08,04,10,14,17.80
2016,08,04,10,16,17.80
2016,08,04,10,17,17.80
2016,08,04,10,18,17.80
2016,08,04,10,19,17.90
2016,08,04,10,21,17.90
2016,08,04,10,22,17.90
2016,08,04,10,23,17.90
2016,08,04,10,24,17.90
2016,08,04,10,26,17.90
2016,08,04,10,27,17.90
2016,08,04,10,28,18.10
2016,08,04,10,29,18.10
2016,08,04,10,31,18.20
2016,08,04,10,32,18.20
2016,08,04,10,33,18.20
2016,08,04,10,34,18.30
2016,08,04,10,36,18.40
2016,08,04,10,37,18.50
2016,08,04,10,38,18.60
2016,08,04,10,39,18.70
2016,08,04,10,41,18.90
2016,08,04,10,42,19.10
2016,08,04,10,43,19.10
2016,08,04,10,44,19.20
2016,08,04,10,46,19.40
2016,08,04,10,47,19.50
2016,08,04,10,48,19.60
2016,08,04,10,49,19.70
2016,08,04,10,51,19.90
2016,08,04,10,52,19.90
2016,08,04,10,53,19.90
2016,08,04,10,54,19.90
2016,08,04,10,56,19.90
2016,08,04,10,57,19.90
2016,08,04,10,58,19.90
2016,08,04,10,59,20.10
2016,08,04,11,01,20.10
2016,08,04,11,02,20.20
2016,08,04,11,03,20.20
2016,08,04,11,04,20.20
2016,08,04,11,06,20.20
2016,08,04,11,07,20.20
2016,08,04,11,08,20.30
2016,08,04,11,09,20.30
2016,08,04,11,11,20.30
2016,08,04,11,12,20.20
2016,08,04,11,13,20.20
2016,08,04,11,14,20.20
2016,08,04,11,15,20.20
2016,08,04,11,16,20.20
2016,08,04,11,17,20.20
2016,08,04,11,18,20.20
2016,08,04,11,19,20.10
2016,08,04,11,20,20.10
2016,08,04,11,21,20.10
2016,08,04,11,22,20.10
2016,08,04,11,23,19.90
2016,08,04,11,24,19.90
2016,08,04,11,25,19.90
2016,08,04,11,26,19.90
2016,08,04,11,27,19.90
2016,08,04,11,28,19.90
2016,08,04,11,29,19.90
2016,08,04,11,30,19.90
2016,08,04,11,31,19.90
2016,08,04,11,32,19.90
2016,08,04,11,33,19.90
2016,08,04,11,34,19.90
2016,08,04,11,35,19.90
2016,08,04,11,36,19.90
2016,08,04,11,37,19.90
2016,08,04,11,38,19.90
2016,08,04,11,39,19.90
2016,08,04,11,40,19.80
2016,08,04,11,41,19.80
2016,08,04,11,42,19.80
2016,08,04,11,43,19.80
2016,08,04,11,44,19.80
2016,08,04,11,45,19.80
2016,08,04,11,46,19.80
2016,08,04,11,47,19.80
2016,08,04,11,48,19.70
2016,08,04,11,49,19.70
2016,08,04,11,50,19.70
2016,08,04,11,51,19.70
2016,08,04,11,52,19.70
2016,08,04,11,53,19.70
2016,08,04,11,54,19.70
2016,08,04,11,55,19.70
2016,08,04,11,56,19.80
2016,08,04,11,57,19.80
2016,08,04,11,58,19.80
2016,08,04,11,59,19.80
2016,08,04,12,00,19.80
2016,08,04,12,01,19.90
2016,08,04,12,02,19.90
2016,08,04,12,03,19.90
2016,08,04,12,04,20.10
2016,08,04,12,05,20.20
2016,08,04,12,06,20.20
2016,08,04,12,07,20.20
2016,08,04,12,08,20.30
2016,08,04,12,09,20.40
2016,08,04,12,10,20.40
2016,08,04,12,11,20.40
2016,08,04,12,12,20.40
2016,08,04,12,13,20.40
2016,08,04,12,14,20.40
2016,08,04,12,16,20.40
2016,08,04,12,17,20.40
2016,08,04,12,18,20.40
2016,08,04,12,19,20.40
2016,08,04,12,20,20.40
2016,08,04,12,21,20.50
2016,08,04,12,22,20.50
2016,08,04,12,23,20.60
2016,08,04,12,24,20.60
2016,08,04,12,25,20.70
2016,08,04,12,26,20.70
2016,08,04,12,27,20.80
2016,08,04,12,28,20.80
2016,08,04,12,29,20.80
2016,08,04,12,30,20.80
2016,08,04,12,31,20.80
2016,08,04,12,32,20.80
2016,08,04,12,33,20.70
2016,08,04,12,34,20.60
2016,08,04,12,35,20.60
2016,08,04,12,36,20.50
2016,08,04,12,37,20.40
2016,08,04,12,38,20.40
2016,08,04,12,39,20.30
2016,08,04,12,40,20.30
2016,08,04,12,41,20.30
2016,08,04,12,42,20.30
2016,08,04,12,43,20.30
2016,08,04,12,44,20.30
2016,08,04,12,46,20.40
2016,08,04,12,47,20.40
2016,08,04,12,48,20.40
2016,08,04,12,49,20.40
2016,08,04,12,51,20.40
2016,08,04,12,52,20.40
2016,08,04,12,53,20.40
2016,08,04,12,54,20.40
2016,08,04,12,56,20.40
2016,08,04,12,57,20.40
2016,08,04,12,58,20.30
2016,08,04,12,59,20.30
2016,08,04,13,01,20.30
2016,08,04,13,02,20.30
2016,08,04,13,03,20.30
2016,08,04,13,04,20.30
2016,08,04,13,06,20.30
2016,08,04,13,07,20.20
2016,08,04,13,08,20.20
2016,08,04,13,09,20.20
2016,08,04,13,11,20.30
2016,08,04,13,12,20.30
2016,08,04,13,13,20.30
2016,08,04,13,14,20.30
2016,08,04,13,16,20.40
2016,08,04,13,17,20.40
2016,08,04,13,18,20.40
2016,08,04,13,19,20.40
2016,08,04,13,21,20.50
2016,08,04,13,22,20.50
2016,08,04,13,23,20.50
2016,08,04,13,24,20.60
2016,08,04,13,26,20.60
2016,08,04,13,27,20.60
2016,08,04,13,28,20.70
2016,08,04,13,29,20.70
2016,08,04,13,31,20.80
2016,08,04,13,32,20.80
2016,08,04,13,33,20.90
2016,08,04,13,34,20.90
2016,08,04,13,36,21.00
2016,08,04,13,37,21.00
2016,08,04,13,38,21.00
2016,08,04,13,39,21.00
2016,08,04,13,41,20.90
2016,08,04,13,42,20.90
2016,08,04,13,43,20.90
2016,08,04,13,44,20.90
2016,08,04,13,46,20.80
2016,08,04,13,47,20.80
2016,08,04,13,48,20.80
2016,08,04,13,49,20.80
2016,08,04,13,51,20.80
2016,08,04,13,52,20.80
2016,08,04,13,53,20.80
2016,08,04,13,54,20.80
2016,08,04,13,56,20.80
2016,08,04,13,57,20.80
2016,08,04,13,58,20.80
2016,08,04,13,59,20.80
2016,08,04,14,00,20.80
2016,08,04,14,01,20.80
2016,08,04,14,02,20.80
2016,08,04,14,03,20.90
2016,08,04,14,04,20.80
2016,08,04,14,06,20.80
2016,08,04,14,07,20.80
2016,08,04,14,08,20.80
2016,08,04,14,09,20.80
2016,08,04,14,10,20.80
2016,08,04,14,11,20.80
2016,08,04,14,12,20.80
2016,08,04,14,13,20.80
2016,08,04,14,14,20.90
2016,08,04,14,15,20.90
2016,08,04,14,16,20.90
2016,08,04,14,17,21.00
2016,08,04,14,18,21.00
2016,08,04,14,19,21.10
2016,08,04,14,20,21.20
2016,08,04,14,21,21.30
2016,08,04,14,22,21.30
2016,08,04,14,23,21.40
2016,08,04,14,24,21.40
2016,08,04,14,25,21.60
2016,08,04,14,26,21.60
2016,08,04,14,27,21.60
2016,08,04,14,28,21.60
2016,08,04,14,29,21.60
2016,08,04,14,30,21.70
2016,08,04,14,31,21.80
2016,08,04,14,32,21.90
2016,08,04,14,33,22.00
2016,08,04,14,34,22.10
2016,08,04,14,35,22.10
2016,08,04,14,36,22.30
2016,08,04,14,37,22.40
2016,08,04,14,38,22.50
2016,08,04,14,39,22.50
2016,08,04,14,40,22.50
2016,08,04,14,41,22.50
2016,08,04,14,42,22.40
2016,08,04,14,43,22.40
2016,08,04,14,44,22.30
2016,08,04,14,45,22.30
2016,08,04,14,46,22.20
2016,08,04,14,47,22.10
2016,08,04,14,48,22.10
2016,08,04,14,49,22.10
2016,08,04,14,50,22.00
2016,08,04,14,51,22.00
2016,08,04,14,52,21.90
2016,08,04,14,53,21.80
2016,08,04,14,54,21.80
2016,08,04,14,55,21.70
2016,08,04,14,56,21.70
2016,08,04,14,57,21.70
2016,08,04,14,58,21.70
2016,08,04,14,59,21.70
2016,08,04,15,00,21.60
2016,08,04,15,01,21.60
2016,08,04,15,02,21.60
2016,08,04,15,03,21.60
2016,08,04,15,04,21.60
2016,08,04,15,05,21.60
2016,08,04,15,06,21.60
2016,08,04,15,07,21.60
2016,08,04,15,08,21.60
2016,08,04,15,09,21.60
2016,08,04,15,10,21.70
2016,08,04,15,11,21.70
2016,08,04,15,12,21.70
2016,08,04,15,13,21.70
2016,08,04,15,14,21.70
2016,08,04,15,15,21.70
2016,08,04,15,16,21.70
2016,08,04,15,17,21.70
2016,08,04,15,18,21.60
2016,08,04,15,19,21.60
2016,08,04,15,20,21.60
2016,08,04,15,21,21.60
2016,08,04,15,22,21.60
2016,08,04,15,23,21.60
2016,08,04,15,24,21.60
2016,08,04,15,25,21.60
2016,08,04,15,26,21.60
2016,08,04,15,27,21.60
2016,08,04,15,28,21.60
2016,08,04,15,29,21.60
2016,08,04,15,30,21.60
2016,08,04,15,31,21.60
2016,08,04,15,32,21.60
2016,08,04,15,33,21.60
2016,08,04,15,34,21.60
2016,08,04,15,35,21.60
2016,08,04,15,36,21.60
2016,08,04,15,37,21.60
2016,08,04,15,38,21.60
2016,08,04,15,39,21.60
2016,08,04,15,40,21.60
2016,08,04,15,42,21.60
2016,08,04,15,43,21.60
2016,08,04,15,44,21.60
2016,08,04,15,46,21.60
2016,08,04,15,47,21.60
2016,08,04,15,48,21.60
2016,08,04,15,49,21.60
2016,08,04,15,51,21.60
2016,08,04,15,52,21.60
2016,08,04,15,53,21.60
2016,08,04,15,54,21.60
2016,08,04,15,56,21.60
2016,08,04,15,57,21.60
2016,08,04,15,58,21.60
2016,08,04,15,59,21.70
2016,08,04,16,01,21.80
2016,08,04,16,02,21.80
2016,08,04,16,03,21.90
2016,08,04,16,04,22.00
2016,08,04,16,06,22.20
2016,08,04,16,07,22.30
2016,08,04,16,08,22.40
2016,08,04,16,09,22.50
2016,08,04,16,11,22.70
2016,08,04,16,12,22.80
2016,08,04,16,13,22.80
2016,08,04,16,14,22.80
2016,08,04,16,16,22.90
2016,08,04,16,17,22.90
2016,08,04,16,18,22.90
2016,08,04,16,19,22.80
2016,08,04,16,21,22.80
2016,08,04,16,22,22.80
2016,08,04,16,23,22.80
2016,08,04,16,24,22.80
2016,08,04,16,26,22.80
2016,08,04,16,27,22.80
2016,08,04,16,28,22.70
2016,08,04,16,29,22.70
2016,08,04,16,31,22.60
2016,08,04,16,32,22.60
2016,08,04,16,33,22.60
2016,08,04,16,34,22.60
2016,08,04,16,36,22.60
2016,08,04,16,37,22.60
2016,08,04,16,38,22.60
2016,08,04,16,39,22.60
2016,08,04,16,41,22.60
2016,08,04,16,42,22.70
2016,08,04,16,43,22.70
2016,08,04,16,44,22.80
2016,08,04,16,46,22.90
2016,08,04,16,47,23.10
2016,08,04,16,48,23.20
2016,08,04,16,49,23.30
2016,08,04,16,51,23.60
2016,08,04,16,52,23.70
2016,08,04,16,53,23.80
2016,08,04,16,54,23.90
2016,08,04,16,56,24.10
2016,08,04,16,57,24.20
2016,08,04,16,58,24.20
2016,08,04,16,59,24.20
2016,08,04,17,00,24.20
2016,08,04,17,01,24.20
2016,08,04,17,02,24.20
2016,08,04,17,03,24.20
2016,08,04,17,04,24.20
2016,08,04,17,06,24.20
2016,08,04,17,07,24.20
2016,08,04,17,08,24.30
2016,08,04,17,09,24.30
2016,08,04,17,10,24.30
2016,08,04,17,11,24.40
2016,08,04,17,12,24.50
2016,08,04,17,13,24.50
2016,08,04,17,14,24.50
2016,08,04,17,15,24.40
2016,08,04,17,16,24.40
2016,08,04,17,17,24.30
2016,08,04,17,18,24.20
2016,08,04,17,19,24.20
2016,08,04,17,20,24.10
2016,08,04,17,21,23.90
2016,08,04,17,22,23.80
2016,08,04,17,23,23.70
2016,08,04,17,24,23.70
2016,08,04,17,25,23.60
2016,08,04,17,26,23.60
2016,08,04,17,27,23.40
2016,08,04,17,28,23.40
2016,08,04,17,29,23.40
2016,08,04,17,30,23.40
2016,08,04,17,31,23.40
2016,08,04,17,32,23.30
2016,08,04,17,33,23.30
2016,08,04,17,34,23.30
2016,08,04,17,35,23.40
2016,08,04,17,36,23.40
2016,08,04,17,37,23.40
2016,08,04,17,38,23.60
2016,08,04,17,39,23.60
2016,08,04,17,40,23.60
2016,08,04,17,41,23.60
2016,08,04,17,42,23.60
2016,08,04,17,43,23.60
2016,08,04,17,44,23.70
2016,08,04,17,45,23.70
2016,08,04,17,46,23.70
2016,08,04,17,47,23.70
2016,08,04,17,48,23.70
2016,08,04,17,49,23.70
2016,08,04,17,50,23.60
2016,08,04,17,51,23.60
2016,08,04,17,52,23.40
2016,08,04,17,53,23.40
2016,08,04,17,54,23.30
2016,08,04,17,55,23.30
2016,08,04,17,56,23.30
2016,08,04,17,57,23.30
2016,08,04,17,58,23.30
2016,08,04,17,59,23.20
2016,08,04,18,00,23.20
2016,08,04,18,01,23.20
2016,08,04,18,02,23.20
2016,08,04,18,03,23.20
2016,08,04,18,04,23.20
2016,08,04,18,05,23.20
2016,08,04,18,06,23.20
2016,08,04,18,07,23.30
2016,08,04,18,08,23.30
2016,08,04,18,09,23.30
2016,08,04,18,10,23.30
2016,08,04,18,11,23.30
2016,08,04,18,12,23.30
2016,08,04,18,13,23.30
2016,08,04,18,14,23.30
2016,08,04,18,15,23.30
2016,08,04,18,16,23.30
2016,08,04,18,17,23.30
2016,08,04,18,18,23.30
2016,08,04,18,19,23.30
2016,08,04,18,20,23.30
2016,08,04,18,21,23.30
2016,08,04,18,22,23.30
2016,08,04,18,24,23.30
2016,08,04,18,26,23.30
2016,08,04,18,27,23.30
2016,08,04,18,28,23.30
2016,08,04,18,29,23.30
2016,08,04,18,31,23.30
2016,08,04,18,32,23.30
2016,08,04,18,33,23.30
2016,08,04,18,34,23.30
2016,08,04,18,36,23.20
2016,08,04,18,37,23.20
2016,08,04,18,38,23.10
2016,08,04,18,39,23.10
2016,08,04,18,41,22.90
2016,08,04,18,42,22.90
2016,08,04,18,43,22.90
2016,08,04,18,44,22.80
2016,08,04,18,46,22.80
2016,08,04,18,47,22.70
2016,08,04,18,48,22.70
2016,08,04,18,49,22.70
2016,08,04,18,51,22.60
2016,08,04,18,52,22.60
2016,08,04,18,53,22.60
2016,08,04,18,54,22.50
2016,08,04,18,56,22.50
2016,08,04,18,57,22.50
2016,08,04,18,58,22.50
2016,08,04,18,59,22.40
2016,08,04,19,01,22.40
2016,08,04,19,02,22.40
2016,08,04,19,03,22.40
2016,08,04,19,04,22.40
2016,08,04,19,06,22.40
2016,08,04,19,07,22.40
2016,08,04,19,08,22.40
2016,08,04,19,09,22.40
2016,08,04,19,11,22.40
2016,08,04,19,12,22.40
2016,08,04,19,13,22.30
2016,08,04,19,14,22.30
2016,08,04,19,16,22.30
2016,08,04,19,17,22.30
2016,08,04,19,18,22.20
2016,08,04,19,19,22.20
2016,08,04,19,21,22.20
2016,08,04,19,22,22.10
2016,08,04,19,23,22.10
2016,08,04,19,24,22.10
2016,08,04,19,26,22.00
2016,08,04,19,27,21.90
2016,08,04,19,28,21.90
2016,08,04,19,29,21.80
2016,08,04,19,31,21.70
2016,08,04,19,32,21.70
2016,08,04,19,33,21.60
2016,08,04,19,34,21.60
2016,08,04,19,36,21.40
2016,08,04,19,37,21.30
2016,08,04,19,38,21.30
2016,08,04,19,39,21.30
2016,08,04,19,40,21.30
2016,08,04,19,41,21.20
2016,08,04,19,42,21.10
2016,08,04,19,43,21.10
2016,08,04,19,44,21.00
2016,08,04,19,45,21.00
2016,08,04,19,46,20.90
2016,08,04,19,47,20.80
2016,08,04,19,48,20.80
2016,08,04,19,49,20.70
2016,08,04,19,50,20.60
2016,08,04,19,51,20.60
2016,08,04,19,52,20.50
2016,08,04,19,53,20.40
2016,08,04,19,54,20.40
2016,08,04,19,55,20.30
2016,08,04,19,56,20.20
2016,08,04,19,57,20.20
2016,08,04,19,58,20.20
2016,08,04,19,59,20.20
2016,08,04,20,00,20.10
2016,08,04,20,01,20.10
2016,08,04,20,02,19.90
2016,08,04,20,03,19.90
2016,08,04,20,04,19.90
2016,08,04,20,05,19.90
2016,08,04,20,06,19.90
2016,08,04,20,07,19.80
2016,08,04,20,08,19.80
2016,08,04,20,09,19.80
2016,08,04,20,10,19.80
2016,08,04,20,11,19.80
2016,08,04,20,12,19.80
2016,08,04,20,13,19.80
2016,08,04,20,14,19.80
2016,08,04,20,15,19.80
2016,08,04,20,16,19.80
2016,08,04,20,17,19.70
2016,08,04,20,18,19.70
2016,08,04,20,19,19.60
2016,08,04,20,20,19.60
2016,08,04,20,21,19.50
2016,08,04,20,22,19.50
2016,08,04,20,23,19.40
2016,08,04,20,24,19.40
2016,08,04,20,25,19.30
2016,08,04,20,26,19.30
2016,08,04,20,27,19.20
2016,08,04,20,28,19.20
2016,08,04,20,29,19.10
2016,08,04,20,30,19.10
2016,08,04,20,31,19.10
2016,08,04,20,32,19.10
2016,08,04,20,33,19.10
2016,08,04,20,34,19.10
2016,08,04,20,35,19.10
2016,08,04,20,36,19.10
2016,08,04,20,37,19.10
2016,08,04,20,38,19.10
2016,08,04,20,39,19.10
2016,08,04,20,40,19.10
2016,08,04,20,41,19.10
2016,08,04,20,42,19.10
2016,08,04,20,43,19.10
2016,08,04,20,44,19.10
2016,08,04,21,21,17.40
2016,08,04,21,22,17.40
2016,08,04,21,23,17.40
2016,08,04,21,24,17.40
2016,08,04,21,26,17.50
2016,08,04,21,27,17.50
2016,08,04,21,28,17.50
2016,08,04,21,29,17.50
2016,08,04,21,31,17.50
2016,08,04,21,32,17.60
2016,08,04,21,33,17.60
2016,08,04,21,34,17.60
2016,08,04,21,36,17.60
2016,08,04,21,37,17.50
2016,08,04,21,38,17.50
2016,08,04,21,39,17.50
2016,08,04,21,41,17.50
2016,08,04,21,42,17.50
2016,08,04,21,43,17.50
2016,08,04,21,44,17.40
2016,08,04,21,46,17.40
2016,08,04,21,47,17.40
2016,08,04,21,48,17.30
2016,08,04,21,49,17.30
2016,08,04,21,51,17.30
2016,08,04,21,52,17.30
2016,08,04,21,53,17.30
2016,08,04,21,54,17.20
2016,08,04,21,56,17.10
2016,08,04,21,57,17.10
2016,08,04,21,58,17.00
2016,08,04,21,59,16.90
2016,08,04,22,01,16.80
2016,08,04,22,02,16.70
2016,08,04,22,03,16.70
2016,08,04,22,04,16.70
2016,08,04,22,06,16.60
2016,08,04,22,07,16.40
2016,08,04,22,08,16.40
2016,08,04,22,09,16.40
2016,08,04,22,11,16.30
2016,08,04,22,12,16.30
2016,08,04,22,13,16.20
2016,08,04,22,14,16.20
2016,08,04,22,15,16.20
2016,08,04,22,16,16.20
2016,08,04,22,17,16.10
2016,08,04,22,18,16.10
2016,08,04,22,19,16.10
2016,08,04,22,20,16.10
2016,08,04,22,21,16.10
2016,08,04,22,22,16.10
2016,08,04,22,23,15.90
2016,08,04,22,24,15.90
2016,08,04,22,25,15.90
2016,08,04,22,26,15.80
2016,08,04,22,27,15.80
2016,08,04,22,28,15.80
2016,08,04,22,29,15.80
2016,08,04,22,30,15.80
2016,08,04,22,31,15.80
2016,08,04,22,32,15.80
2016,08,04,22,33,15.80
2016,08,04,22,34,15.80
2016,08,04,22,35,15.80
2016,08,04,22,36,15.80
2016,08,04,22,37,15.70
2016,08,04,22,38,15.70
2016,08,04,22,39,15.70
2016,08,04,22,40,15.70
2016,08,04,22,41,15.70
2016,08,04,22,42,15.70
2016,08,04,22,43,15.70
2016,08,04,22,44,15.70
2016,08,04,22,45,15.70
2016,08,04,22,46,15.60
2016,08,04,22,47,15.60
2016,08,04,22,48,15.60
2016,08,04,22,49,15.60
2016,08,04,22,50,15.60
2016,08,04,22,51,15.60
2016,08,04,22,52,15.60
2016,08,04,22,53,15.50
2016,08,04,22,54,15.50
2016,08,04,22,55,15.50
2016,08,04,22,56,15.50
2016,08,04,22,57,15.50
2016,08,04,22,58,15.50
2016,08,04,22,59,15.50
2016,08,04,23,00,15.50
2016,08,04,23,01,15.50
2016,08,04,23,02,15.50
2016,08,04,23,03,15.50
2016,08,04,23,04,15.40
2016,08,04,23,05,15.40
2016,08,04,23,06,15.40
2016,08,04,23,07,15.40
2016,08,04,23,08,15.40
2016,08,04,23,09,15.40
2016,08,04,23,10,15.40
2016,08,04,23,11,15.40
2016,08,04,23,12,15.30
2016,08,04,23,13,15.30
2016,08,04,23,14,15.30
2016,08,04,23,15,15.30
2016,08,04,23,16,15.30
2016,08,04,23,17,15.30
2016,08,04,23,18,15.30
2016,08,04,23,19,15.30
2016,08,04,23,20,15.30
2016,08,04,23,21,15.30
2016,08,04,23,22,15.30
2016,08,04,23,23,15.30
2016,08,04,23,24,15.30
2016,08,04,23,25,15.30
2016,08,04,23,26,15.30
2016,08,04,23,27,15.30
2016,08,04,23,28,15.30
2016,08,04,23,29,15.30
2016,08,04,23,30,15.20
2016,08,04,23,31,15.20
2016,08,04,23,32,15.20
2016,08,04,23,33,15.20
2016,08,04,23,34,15.10
2016,08,04,23,35,15.10
2016,08,04,23,36,15.10
2016,08,04,23,37,15.10
2016,08,04,23,38,15.00
2016,08,04,23,39,15.00
2016,08,04,23,40,14.90
2016,08,04,23,41,14.90
2016,08,04,23,42,14.90
2016,08,04,23,43,14.90
2016,08,04,23,44,14.90
2016,08,04,23,45,14.80
2016,08,04,23,47,14.80
2016,08,04,23,48,14.80
2016,08,04,23,49,14.80
2016,08,04,23,51,14.80
2016,08,04,23,52,14.80
2016,08,04,23,53,14.80
2016,08,04,23,54,14.80
2016,08,04,23,56,14.80
2016,08,04,23,57,14.80
2016,08,04,23,58,14.80
2016,08,04,23,59,14.80
